Zurück zum Katalog

SL-12 R/B(2)

AktivGEO
NORAD 19776·ROCKET BODY·🇷🇺 Russia

Gestartet Jan 26, 1989 von Baikonur Cosmodrome

Loading…

TLE

AktuellSource: Space-Track

Epoche: Sep 14, 2026, 17:34 UTC

1 19776U 89004F   26257.73246074 -.00000029  00000-0  00000-0 0  9998
2 19776  12.7151 334.0321 0021548 135.5380 222.7844  0.97992466119260

Verfolge SL-12 R/B(2) in Echtzeit mit AllMySat

Download on the App Store